Temp
18 18 18 18 18 19 19 18 18 18 18 19 19 19 19 19 19 19 18 18 18 18 18 18 18 17 17 17 17 18 18 18 18 18 18 18 18 18 18 18 18 18
18 18 18 18 18 18 18 18 18 18 18 18 19 19 19 19 19 19 18 18 18 18 17 17 17 17 17 17 17 17 17 18 18 18 18 18 18 18 18 18 18 18
18 18 18 18 18 17 17 17 17 18 18 18 19 19 19 19 19 18 18 17 17 17 17 17 17 17 17 17 17 17 17 17 17 17 17 17 18 18 18 18 18 18
17 17 17 17 17 17 17 18 18 18 18 18 19 19 19 18 18 17 17 17 17 17 17 17 17 17 17 17 17 17 17 17 17 17 17 17 17 17 18 18 18 18
17 17 17 17 17 17 17 18 18 18 19 19 18 18 18 18 17 17 17 17 17 17 17 17 17 17 17 17 17 17 17 17 17 17 17 17 17 17 17 17 17 17
18 18 18 17 17 17 17 17 18 18 18 19 18 18 18 17 17 17 18 17 17 17 17 17 17 17 17 17 17 16 16 16 16 16 16 17 17 17 17 17 17 17
18 18 18 17 17 17 17 18 18 18 18 18 18 17 17 17 17 17 18 18 17 17 17 17 17 17 16 16 16 16 16 16 16 16 16 16 16 17 17 17 17 17
18 18 17 17 17 17 17 18 18 18 18 18 18 17 17 17 17 17 17 17 17 17 17 17 16 16 16 16 16 16 16 16 16 16 16 16 16 16 16 16 17 17
18 18 17 17 17 17 17 18 18 18 18 17 17 17 17 17 17 17 17 17 17 17 16 16 16 16 16 15 15 15 15 15 15 16 16 16 16 16 16 16 17 17
18 18 17 17 17 17 17 17 17 17 17 17 17 17 17 17 16 17 17 17 16 16 16 16 16 16 16 15 15 15 15 15 15 15 15 15 15 16 16 16 16 17
18 17 17 17 17 17 17 17 17 17 17 17 17 17 17 16 16 16 16 16 16 16 16 16 16 16 16 16 15 15 15 15 15 15 15 15 15 15 16 16 16 16
17 17 17 17 17 17 17 17 17 17 17 17 17 17 16 16 16 16 16 16 16 16 16 16 16 16 16 16 16 16 15 15 15 15 15 15 15 15 15 15 16 16
17 17 17 17 17 17 17 17 17 17 17 17 17 17 17 16 16 16 16 16 16 16 16 16 16 16 16 16 16 15 15 15 15 15 15 14 15 15 15 15 15 15
17 17 17 17 17 17 17 17 17 17 17 17 17 17 17 17 17 16 16 16 16 16 16 16 16 16 16 16 16 15 15 15 15 15 15 15 15 15 15 15 16 16
17 17 17 17 17 18 18 17 17 17 17 17 17 17 17 17 17 16 17 17 16 16 16 16 16 16 16 16 15 15 15 15 15 15 15 15 15 15 15 15 15 15
17 17 17 17 17 18 18 17 17 17 17 17 17 17 17 17 17 17 16 16 16 16 16 16 15 15 15 15 15 15 15 15 15 15 15 14 14 14 14 14 15 14
17 17 17 17 17 17 17 17 17 17 17 17 17 17 17 17 17 16 16 16 15 15 15 15 15 15 15 15 15 15 15 15 15 15 14 14 14 14 13 13 14 14
17 17 17 17 17 17 17 17 17 17 17 17 17 17 17 17 16 16 16 15 15 15 15 15 15 15 15 15 15 15 15 15 15 14 14 14 14 14 14 13 13 13
17 17 17 17 17 17 17 17 17 17 17 17 17 17 17 17 16 16 15 15 15 15 15 15 15 15 15 15 15 15 15 14 14 14 14 14 14 14 13 13 13 13
17 17 17 17 17 17 17 17 17 17 17 17 17 17 16 16 15 15 15 15 15 15 15 15 15 15 15 15 15 15 14 14 14 14 14 13 13 13 13 13 13 13
17 17 17 17 17 17 17 17 17 17 17 16 16 16 15 15 15 14 14 14 14 14 14 14 14 14 14 14 14 14 14 14 14 13 13 13 13 13 13 13 13 13
17 17 17 17 17 17 17 17 16 16 16 16 15 15 15 14 14 14 14 14 14 14 14 14 14 14 14 14 14 14 13 13 13 13 13 13 13 13 13 13 13 13
17 17 17 17 17 17 17 16 16 16 15 15 15 14 14 14 14 14 14 14 14 14 14 14 14 13 13 13 13 13 13 13 13 13 13 13 13 13 13 13 13 13
17 17 17 17 17 17 17 16 16 15 15 14 14 14 14 14 14 14 14 14 14 14 14 13 13 13 13 13 13 13 13 13 13 13 13 13 13 13 13 13 13 13
17 17 17 17 17 16 16 15 15 14 14 14 14 14 14 14 14 14 13 13 13 13 13 13 13 13 13 13 13 12 13 13 13 13 13 13 13 13 13 13 13 13
17 17 17 17 16 15 15 14 14 14 14 14 14 14 14 14 13 13 13 13 13 13 13 13 13 13 13 13 12 12 12 12 12 13 13 12 12 12 12 13 13 13
Height
1528 1529 1530 1530 1531 1531 1531 1532 1532 1532 1532 1531 1531 1531 1530 1530 1529 1529 1529 1528 1528 1528 1527 1527 1526 1526 1526 1526 1525 1525 1525 1525 1525 1525 1525 1525 1525 1525 1525 1525 1525 1525
1528 1529 1530 1530 1531 1531 1531 1531 1531 1530 1530 1530 1530 1530 1530 1529 1529 1528 1527 1527 1527 1527 1526 1525 1525 1525 1524 1524 1524 1524 1524 1524 1524 1524 1524 1524 1524 1524 1524 1524 1524 1524
1529 1529 1530 1530 1530 1530 1530 1530 1530 1529 1529 1529 1529 1529 1529 1528 1527 1526 1526 1525 1525 1525 1524 1524 1524 1523 1523 1523 1523 1523 1523 1523 1523 1523 1522 1522 1522 1522 1522 1522 1522 1522
1529 1529 1529 1529 1529 1529 1529 1529 1529 1529 1529 1529 1528 1528 1528 1526 1525 1524 1524 1524 1524 1523 1523 1523 1523 1523 1523 1522 1522 1521 1521 1521 1521 1521 1521 1521 1520 1520 1520 1520 1520 1520
1528 1528 1528 1528 1528 1528 1528 1528 1528 1528 1528 1528 1527 1527 1526 1525 1524 1524 1524 1523 1523 1523 1523 1522 1522 1521 1521 1520 1520 1520 1520 1519 1520 1520 1519 1519 1519 1518 1518 1518 1518 1518
1527 1526 1526 1527 1526 1526 1526 1527 1527 1527 1527 1527 1526 1525 1525 1524 1523 1523 1523 1523 1522 1523 1522 1521 1520 1519 1519 1519 1519 1519 1518 1518 1518 1518 1517 1517 1517 1517 1517 1517 1517 1516
1526 1526 1525 1525 1525 1525 1525 1526 1526 1526 1526 1526 1525 1524 1524 1523 1523 1523 1523 1523 1522 1521 1521 1520 1519 1519 1518 1518 1518 1518 1517 1517 1517 1516 1516 1516 1515 1515 1515 1515 1515 1515
1524 1524 1524 1524 1524 1524 1525 1525 1526 1525 1525 1524 1524 1523 1523 1523 1523 1523 1522 1522 1520 1520 1519 1519 1518 1518 1518 1517 1517 1516 1516 1516 1515 1515 1515 1514 1514 1514 1513 1514 1513 1513
1523 1523 1523 1523 1523 1523 1524 1524 1524 1523 1523 1523 1523 1522 1522 1522 1522 1521 1521 1520 1519 1519 1519 1518 1518 1517 1517 1516 1515 1515 1514 1514 1514 1513 1513 1512 1512 1512 1512 1512 1511 1511
1522 1522 1522 1522 1522 1522 1523 1523 1523 1523 1522 1522 1522 1522 1522 1521 1520 1519 1519 1518 1518 1518 1518 1517 1517 1516 1515 1514 1514 1513 1512 1512 1511 1511 1511 1510 1510 1510 1510 1509 1509 1509
1522 1522 1521 1521 1521 1522 1522 1522 1522 1521 1521 1521 1521 1520 1520 1519 1518 1517 1517 1517 1517 1517 1516 1516 1515 1514 1513 1513 1512 1511 1511 1510 1509 1509 1509 1508 1508 1508 1507 1507 1507 1507
1520 1520 1520 1520 1520 1521 1521 1521 1520 1520 1520 1519 1519 1518 1518 1517 1517 1516 1516 1516 1515 1515 1514 1514 1513 1513 1512 1511 1510 1509 1509 1508 1507 1507 1507 1506 1506 1505 1505 1505 1505 1504
1519 1520 1519 1519 1519 1520 1519 1519 1519 1518 1518 1518 1517 1517 1516 1516 1515 1515 1514 1514 1513 1513 1513 1512 1512 1511 1510 1509 1508 1508 1507 1506 1506 1505 1505 1504 1504 1503 1503 1502 1502 1502
1519 1519 1519 1519 1518 1518 1518 1517 1517 1517 1516 1516 1516 1515 1515 1514 1514 1513 1513 1513 1512 1511 1511 1510 1509 1509 1508 1507 1507 1506 1506 1505 1504 1504 1503 1502 1501 1501 1500 1500 1499 1498
1519 1519 1518 1518 1518 1517 1517 1516 1516 1516 1515 1515 1514 1514 1514 1513 1512 1512 1511 1511 1510 1509 1509 1508 1507 1506 1506 1505 1505 1505 1504 1503 1502 1502 1501 1500 1499 1498 1497 1496 1496 1495
1518 1518 1518 1517 1517 1516 1516 1515 1515 1515 1514 1514 1513 1513 1512 1512 1511 1511 1510 1509 1508 1507 1507 1506 1505 1505 1504 1503 1503 1503 1502 1501 1500 1499 1498 1497 1496 1495 1494 1493 1493 1493
1518 1517 1517 1517 1516 1515 1515 1514 1514 1513 1513 1512 1512 1511 1511 1510 1510 1509 1508 1507 1507 1506 1505 1505 1504 1503 1502 1502 1501 1500 1500 1498 1497 1496 1495 1494 1494 1493 1491 1490 1489 1489
1517 1516 1516 1516 1515 1515 1514 1513 1513 1512 1511 1511 1511 1510 1510 1509 1508 1507 1506 1506 1505 1504 1504 1503 1502 1501 1501 1500 1499 1498 1497 1496 1495 1494 1493 1492 1491 1490 1489 1488 1487 1486
1516 1515 1515 1515 1514 1514 1513 1512 1511 1511 1510 1510 1509 1509 1508 1507 1506 1505 1504 1504 1503 1502 1502 1501 1500 1499 1499 1498 1496 1495 1494 1493 1492 1491 1490 1489 1489 1488 1487 1486 1485 1484
1515 1514 1514 1514 1513 1512 1512 1511 1510 1510 1509 1508 1508 1507 1506 1505 1504 1503 1503 1502 1501 1500 1499 1498 1498 1497 1496 1496 1494 1493 1492 1490 1489 1488 1487 1487 1486 1485 1484 1483 1482 1481
1513 1513 1513 1512 1512 1511 1510 1510 1509 1508 1508 1507 1506 1505 1504 1503 1503 1502 1501 1500 1499 1498 1497 1496 1495 1495 1494 1493 1491 1490 1489 1488 1486 1485 1484 1484 1483 1482 1481 1480 1479 1478
1512 1512 1511 1511 1510 1510 1509 1508 1508 1507 1506 1505 1504 1503 1503 1502 1501 1500 1499 1498 1497 1496 1495 1494 1493 1492 1491 1490 1488 1487 1486 1485 1484 1483 1482 1481 1480 1479 1478 1477 1476 1476
1510 1510 1510 1509 1509 1508 1508 1507 1506 1505 1505 1504 1503 1502 1501 1500 1499 1498 1497 1496 1495 1494 1493 1491 1490 1489 1488 1487 1486 1485 1484 1482 1481 1480 1479 1478 1477 1476 1475 1474 1474 1473
1510 1509 1509 1508 1507 1507 1506 1505 1505 1504 1503 1502 1501 1500 1499 1498 1497 1496 1496 1494 1493 1492 1490 1489 1488 1487 1486 1485 1484 1483 1482 1480 1479 1478 1476 1475 1474 1473 1472 1471 1470 1470
1508 1508 1507 1506 1506 1505 1505 1504 1503 1502 1501 1501 1500 1499 1498 1497 1496 1495 1493 1492 1491 1490 1488 1487 1486 1484 1484 1483 1482 1480 1479 1478 1477 1475 1473 1472 1471 1470 1469 1468 1468 1468
1507 1506 1505 1505 1504 1504 1503 1503 1502 1501 1500 1499 1498 1497 1496 1495 1494 1493 1492 1490 1489 1488 1486 1485 1484 1482 1482 1481 1479 1478 1477 1476 1475 1473 1471 1470 1469 1468 1467 1466 1466 1465
Wind_Speed
4 3 3 2 4 6 6 4 1 2 3 1 3 4 4 5 7 8 6 5 5 7 8 8 8 9 9 9 10 12 13 12 12 12 12 13 14 14 15 15 14 14
4 4 4 2 1 2 2 2 2 2 1 3 4 4 4 5 6 4 4 6 7 7 8 9 9 9 9 10 11 12 11 11 12 12 12 12 12 13 14 14 14 14
3 3 3 2 1 1 1 1 2 3 4 5 4 4 5 5 6 4 5 6 6 6 7 8 9 9 9 10 11 11 11 11 12 12 12 13 13 14 14 14 15 14
4 4 3 2 2 2 0 2 3 4 4 5 5 5 4 5 6 6 6 7 8 8 8 10 11 10 9 9 10 11 11 11 11 11 13 13 13 13 14 15 15 15
3 3 2 2 1 1 1 3 3 4 3 3 5 5 4 6 8 8 9 10 9 9 10 10 9 9 9 10 12 12 12 12 11 11 13 13 13 13 13 14 15 16
1 2 2 2 1 2 2 3 3 4 3 4 8 8 5 7 9 9 11 12 9 9 10 11 11 12 12 11 11 12 13 13 12 12 14 15 14 14 14 14 14 16
1 2 2 1 1 2 3 4 5 5 5 6 9 9 7 7 8 8 11 10 8 9 12 13 13 12 12 12 11 12 12 13 12 12 14 15 14 14 14 14 15 15
5 3 2 2 1 2 3 4 5 6 6 5 7 8 7 8 9 9 9 10 11 13 13 13 13 12 13 13 13 13 13 13 13 13 15 15 14 14 15 15 16 16
3 2 1 2 3 2 3 3 5 6 6 7 8 8 7 8 9 10 9 11 13 14 13 13 12 13 15 15 14 13 13 13 14 14 14 15 15 15 16 16 16 16
1 1 1 2 4 4 3 4 6 7 7 8 9 9 9 10 13 14 13 14 13 12 12 13 15 15 16 16 15 15 15 15 15 15 15 16 16 15 16 17 18 18
2 3 3 2 4 5 5 5 6 6 7 8 8 10 10 12 15 15 13 13 12 11 12 14 15 16 17 17 17 17 17 17 16 16 16 17 17 16 16 17 18 19
2 4 3 3 4 5 6 7 7 8 8 9 10 12 12 12 14 13 11 12 12 11 13 15 16 18 18 17 18 19 18 18 17 17 16 17 17 17 18 18 18 19
2 3 3 4 4 5 6 7 8 10 10 10 11 12 13 13 13 12 12 14 15 15 17 17 18 19 19 19 19 19 19 18 17 17 17 18 19 19 20 21 21 21
3 3 3 4 5 6 7 8 9 10 11 11 12 12 13 13 13 13 14 16 16 17 18 19 19 20 20 20 19 18 19 19 17 18 20 22 24 25 26 25 23 23
4 4 4 5 6 8 9 9 10 11 12 12 13 13 14 14 14 15 16 17 18 19 19 19 20 20 21 20 17 17 20 22 22 23 25 27 29 30 30 28 24 22
6 6 6 6 8 9 10 11 11 11 12 13 13 14 15 15 16 17 17 18 18 19 19 19 19 20 19 18 16 19 22 24 25 25 26 27 28 29 29 28 24 21
7 7 7 8 9 10 11 11 12 12 13 13 14 15 16 17 17 17 18 18 19 19 19 19 20 20 19 18 18 21 23 24 25 25 26 27 27 27 27 26 25 22
8 8 8 9 10 11 12 12 12 13 13 14 15 16 17 17 18 17 18 18 18 18 19 20 20 20 20 20 22 24 25 25 26 26 27 28 28 28 26 26 27 26
9 9 9 10 11 12 13 13 13 14 14 15 16 17 17 18 19 18 18 18 18 18 19 20 21 20 20 21 23 24 25 25 26 27 28 28 28 28 26 26 27 27
10 10 10 11 12 13 14 14 14 14 15 15 16 17 18 19 18 17 17 18 18 19 20 21 21 21 21 22 23 23 24 25 26 26 25 26 27 27 26 27 27 26
10 11 11 11 13 14 14 14 14 15 15 15 16 18 18 17 17 17 17 19 19 20 21 21 21 21 21 22 23 23 23 24 25 25 25 26 27 27 27 28 27 26
10 11 11 12 13 14 15 14 14 15 16 16 17 18 17 16 17 17 18 20 20 20 21 21 21 22 23 23 23 24 24 24 25 26 27 28 29 28 28 28 26 26
11 11 11 13 13 14 14 14 14 15 16 16 16 16 16 16 17 18 19 20 20 20 21 22 23 24 24 24 24 24 25 26 26 27 28 29 30 29 28 26 25 25
10 11 11 12 13 13 14 14 15 15 15 15 16 16 16 16 17 18 19 20 21 21 22 23 24 23 23 23 23 24 24 26 27 29 29 29 29 27 25 24 24 24
10 10 11 11 12 12 13 14 14 14 14 14 15 15 16 16 17 19 19 20 21 22 23 23 22 22 22 23 23 24 25 26 27 29 29 28 28 27 25 24 23 24
9 10 11 11 11 12 12 13 13 13 13 14 15 16 16 17 18 19 20 21 22 23 23 23 23 23 23 23 24 26 27 27 27 27 27 27 26 26 25 24 24 24
Wind_Direction
160 166 177 207 214 205 206 214 259 278 259 289 337 311 304 315 316 317 325 322 311 314 309 300 304 313 311 304 298 296 292 287 284 285 291 298 301 302 300 298 295 291
169 179 181 182 238 259 246 257 277 268 327 359 331 299 307 326 323 321 337 336 335 331 311 298 297 293 289 291 295 302 305 301 293 287 288 291 288 288 292 293 293 290
159 164 165 155 172 224 246 268 324 5 11 350 324 319 323 323 326 334 345 338 324 313 310 316 325 323 320 317 312 313 311 306 302 296 290 287 279 275 277 281 284 286
149 147 152 159 192 208 168 24 11 360 342 331 336 342 327 321 339 340 328 315 304 308 326 340 345 341 330 315 303 297 291 289 294 299 299 299 296 290 286 284 283 282
163 161 166 161 200 170 79 20 344 308 306 336 332 322 323 335 335 328 334 346 347 345 345 342 332 311 292 284 284 287 290 294 298 295 289 284 282 282 284 285 284 282
220 337 34 94 357 2 55 19 354 325 320 328 316 310 322 330 327 336 354 2 360 345 331 317 304 298 300 305 311 315 315 312 307 300 294 290 287 284 284 285 282 282
150 330 357 108 342 6 18 4 358 338 318 314 318 322 328 326 329 344 352 349 333 313 309 315 320 326 330 328 323 318 311 305 303 304 305 302 299 296 293 291 287 285
160 193 279 318 342 19 7 344 329 319 314 313 315 314 315 324 328 329 328 320 303 296 307 331 342 335 323 316 312 309 306 305 304 302 299 296 296 297 297 294 293 292
159 172 259 321 329 352 352 326 310 307 304 300 303 305 311 317 309 297 290 286 294 312 332 337 326 312 310 311 311 309 306 303 298 294 293 292 291 291 290 287 286 287
111 310 293 308 319 335 334 318 318 321 313 303 306 309 307 302 293 284 277 279 296 321 323 310 304 305 308 309 309 307 303 298 294 291 290 289 286 285 284 282 281 282
151 265 274 307 319 323 317 305 299 296 293 292 294 291 287 289 291 288 284 288 299 307 301 302 308 306 302 302 305 306 306 305 301 295 294 294 293 290 287 283 282 282
191 266 297 321 313 308 302 293 282 276 277 278 279 282 284 287 291 297 302 303 303 301 297 297 297 295 296 302 306 308 310 313 312 307 304 303 299 294 290 286 283 282
238 287 310 305 295 292 287 288 291 293 296 295 293 295 298 297 297 300 302 298 295 293 291 288 286 287 292 298 302 305 309 311 312 308 300 293 291 293 294 291 285 282
263 273 286 293 300 303 303 305 305 305 309 310 308 307 306 305 303 300 296 294 294 295 295 294 292 292 298 303 300 296 298 297 294 290 287 286 289 295 298 296 290 283
269 284 292 302 313 319 321 321 318 317 316 314 313 312 310 308 306 303 302 301 302 303 304 305 303 301 303 305 298 290 289 288 285 284 286 289 293 298 300 299 295 290
271 294 303 309 318 324 325 323 321 320 316 314 314 312 311 311 310 309 309 307 306 306 306 305 301 298 299 302 298 292 291 291 292 291 290 291 295 299 301 300 298 296
271 294 306 310 318 324 323 321 320 317 316 316 316 315 315 314 313 312 309 307 305 303 303 302 299 299 302 304 297 290 289 292 293 292 293 294 297 298 298 298 298 296
278 297 306 309 316 321 320 318 317 317 317 317 316 317 316 314 313 310 307 305 303 302 302 301 299 299 299 299 296 292 292 293 294 295 297 297 298 298 296 295 297 297
278 293 302 307 315 320 321 321 320 318 317 316 314 314 315 315 316 316 313 310 307 304 302 300 299 297 295 298 301 299 296 295 295 297 297 296 297 298 295 291 293 296
270 286 299 309 317 321 322 322 321 319 317 316 315 316 318 318 317 315 311 307 305 303 301 301 300 299 300 302 302 301 300 298 297 297 296 295 296 296 293 290 290 292
266 284 301 312 318 321 322 321 320 319 319 318 318 318 318 316 314 311 307 305 305 305 304 303 302 300 300 301 301 301 300 298 298 298 296 295 295 295 293 292 292 292
265 284 302 315 320 321 319 319 318 319 321 320 318 317 314 312 310 309 309 310 310 309 306 304 301 298 295 294 295 298 299 299 300 299 296 295 295 293 293 292 290 288
268 289 308 317 321 319 316 318 318 318 318 316 313 313 311 310 310 310 312 313 310 307 305 302 301 300 299 296 294 295 297 297 297 296 295 295 295 295 295 293 289 287
278 300 313 315 318 318 317 319 318 314 314 314 315 316 314 313 313 311 309 305 301 301 301 301 302 305 306 306 303 300 298 295 294 295 296 297 299 300 297 293 291 290
291 308 314 314 319 321 319 318 315 313 316 318 318 316 313 311 308 305 305 304 302 303 303 301 301 301 303 307 307 304 302 300 298 296 296 297 299 299 297 294 292 291
304 312 315 318 322 320 317 315 312 314 319 320 319 315 310 306 306 307 310 311 311 312 311 309 308 305 303 302 302 300 300 301 300 297 297 298 299 298 298 297 295 294